[[{"header":{"parameterUnit":"m.s-1","parameterCategory":1,"la1":30.2991,"la2":30.254,"lo1":-89.0895,"lo2":-89.0444,"dy":0.0017,"dx":0.0017,"nx":28,"ny":28,"refTime":"2025-06-02T21:00:00:Z","depth":0,"parameterNumber":2,"parameterNumberName":"U-component_of_WINDS"},"data":[0,0,0,0,0,0,0,0,0,0,0,0,0,0,0,0,0,0,0,0,0,0,0,0,0,0,0,0,0,0,0,0,0,0,0,0,0,0,0,0,0,0,0,0,0,0,0,0,0,0,0,0,0,0,0,0,0,0,-1.1206,-1.1205,0,-1.1168,-1.1168,-1.1168,-1.1108,-1.1107,-1.1106,-1.1105,-1.1068,-1.1068,-1.1068,0,0,0,0,0,0,0,0,0,0,0,0,0,-1.1227,-1.1227,-1.1206,-1.1205,-1.1205,-1.1169,-1.1168,-1.1167,-1.1108,-1.1107,-1.1105,-1.1104,-1.1068,-1.1068,-1.1068,0,0,0,0,0,0,0,0,0,0,0,0,0,-1.1207,-1.1227,-1.1206,-1.1171,-1.1167,-1.1169,-1.1168,-1.1167,-1.1108,-1.1107,-1.1105,-1.1103,-1.1068,-1.1068,-1.1068,-1.1101,0,0,-1.1068,-1.1068,0,0,0,0,0,0,0,0,-1.1208,-1.1206,-1.1176,-1.1173,-1.1169,-1.1141,-1.1162,-1.1145,-1.1109,-1.1131,-1.1104,-1.1103,-1.1094,-1.1091,-1.1088,-1.1099,-1.1098,-1.1068,-1.1068,-1.1068,-1.1068,0,0,0,0,0,0,0,-1.121,-1.1207,-1.1191,-1.1176,-1.1172,-1.1157,-1.1153,-1.1159,-1.1122,-1.1129,-1.1124,-1.112,-1.1091,-1.1088,-1.1087,-1.1097,-1.1068,-1.1068,-1.1068,-1.1068,-1.1136,-1.1137,0,0,0,0,0,0,-1.1216,-1.1209,-1.1192,-1.119,-1.1185,-1.1158,-1.1153,-1.1152,-1.1122,-1.1115,-1.1122,-1.1118,-1.1089,-1.1087,-1.1085,-1.1123,-1.1068,-1.1068,-1.1068,-1.1134,-1.1136,-1.1138,0,0,0,0,0,0,-1.1217,-1.1215,-1.1194,-1.1198,-1.1194,-1.116,-1.1159,-1.1152,-1.1149,-1.1116,-1.111,-1.1125,-1.1087,-1.1085,-1.1098,-1.1121,-1.1068,-1.1068,-1.1132,-1.1134,-1.1137,-1.1199,0,0,0,0,0,0,-1.1217,-1.1216,-1.1227,-1.1199,-1.1194,-1.1206,-1.116,-1.1152,-1.1149,-1.1143,-1.1118,-1.1112,-1.1086,-1.1098,-1.1098,-1.112,-1.1068,-1.113,-1.1133,-1.1136,-1.1194,-1.1203,-1.121,0,0,0,0,0,-1.1218,-1.1246,-1.1228,-1.1226,-1.1208,-1.1208,-1.1205,-1.1174,-1.1151,-1.1163,-1.1142,-1.1113,-1.1118,-1.11,-1.1099,-1.1122,-1.1128,-1.1132,-1.1136,-1.1191,-1.1201,-1.121,0,0,0,0,0,0,-1.1278,-1.1242,-1.1221,-1.124,-1.1228,-1.1198,-1.1212,-1.1186,-1.118,-1.1175,-1.1137,-1.1132,-1.115,-1.1137,-1.1117,-1.1153,-1.1119,-1.1123,-1.1161,-1.1171,-1.1178,-1.1181,-1.1068,0,0,0,0,0,-1.1294,-1.1296,-1.1264,-1.1284,-1.1279,-1.1247,-1.1245,-1.1222,-1.1208,-1.1202,-1.1182,-1.117,-1.1169,-1.1169,-1.1166,-1.1192,-1.1187,-1.1208,-1.1216,-1.1222,-1.1226,-1.1241,-1.125,-1.1151,-1.1151,-1.1151,0,0,-1.1325,-1.1306,-1.1309,-1.1296,-1.1283,-1.1287,-1.1242,-1.1248,-1.1251,-1.1203,-1.1214,-1.12,-1.1183,-1.1203,-1.1211,-1.1193,-1.1253,-1.1227,-1.1233,-1.1233,-1.1246,-1.1255,-1.1263,-1.1153,-1.1153,-1.1153,0,0,-1.1386,-1.1371,-1.1386,-1.1375,-1.1356,-1.1335,-1.1339,-1.1313,-1.1301,-1.1311,-1.1276,-1.1279,-1.1278,-1.1268,-1.1263,-1.1321,-1.1294,-1.1321,-1.1363,-1.1377,-1.1385,-1.1392,-1.1414,-1.1422,-1.1325,-1.1325,-1.1325,0,-1.1428,-1.1431,-1.1397,-1.1406,-1.1401,-1.1358,-1.1374,-1.1365,-1.1347,-1.1345,-1.1325,-1.1323,-1.1309,-1.1327,-1.1341,-1.1338,-1.1342,-1.1324,-1.1387,-1.1393,-1.1399,-1.1419,-1.1427,-1.1329,-1.1328,-1.1328,-1.1328,0,-1.1485,-1.1488,-1.1503,-1.1486,-1.1484,-1.1496,-1.1465,-1.1466,-1.1444,-1.1425,-1.1437,-1.1419,-1.1412,-1.1414,-1.1393,-1.1429,-1.1419,-1.1394,-1.1358,-1.1412,-1.1431,-1.1438,-1.1334,-1.1332,-1.1331,-1.1331,0,0,-1.1581,-1.1546,-1.1552,-1.1545,-1.1522,-1.1524,-1.1535,-1.1528,-1.1531,-1.152,-1.1529,-1.1529,-1.1506,-1.15,-1.1477,-1.149,-1.1538,-1.1463,-1.1462,-1.1478,-1.1579,-1.1599,-1.1608,-1.152,-1.1522,-1.1523,-1.1581,0,-1.1637,-1.1653,-1.1623,-1.1646,-1.165,-1.161,-1.1619,-1.1607,-1.159,-1.1591,-1.1572,-1.1574,-1.1542,-1.1539,-1.1549,-1.153,-1.1558,-1.1525,-1.1529,-1.153,-1.1535,-1.1618,-1.1638,-1.1694,-1.1588,-1.1589,-1.159,0,-1.1704,-1.1697,-1.172,-1.1697,-1.1697,-1.1707,-1.1699,-1.17,-1.1686,-1.1672,-1.1667,-1.164,-1.165,-1.1616,-1.163,-1.1609,-1.1608,-1.16,-1.1601,-1.16,-1.1563,-1.162,-1.171,-1.1719,-1.16,-1.1599,-1.1599,0,-1.1773,-1.1769,-1.1783,-1.1778,-1.1751,-1.1758,-1.1748,-1.1731,-1.173,-1.1723,-1.1722,-1.1717,-1.1714,-1.1711,-1.1684,-1.1662,-1.1702,-1.1665,-1.1692,-1.1693,-1.1702,-1.1702,-1.1795,-1.1702,-1.1701,-1.1701,-1.1701,0,-1.1839,-1.1855,-1.1814,-1.1823,-1.184,-1.1806,-1.1825,-1.181,-1.1797,-1.1802,-1.1767,-1.1774,-1.1737,-1.174,-1.1719,-1.1735,-1.1734,-1.1724,-1.1718,-1.1727,-1.1729,-1.1727,-1.1723,-1.1703,-1.1703,-1.1703,-1.1702,0,-1.1919,-1.1892,-1.1904,-1.1878,-1.1872,-1.1886,-1.1864,-1.1871,-1.1852,-1.186,-1.186,-1.1831,-1.1833,-1.1805,-1.1801,-1.1787,-1.1813,-1.18,-1.1818,-1.1814,-1.1842,-1.1841,-1.1938,-1.1949,-1.1848,-1.1849,-1.185,0,-1.1963,-1.1975,-1.195,-1.1951,-1.1942,-1.1944,-1.1942,-1.191,-1.191,-1.1895,-1.1905,-1.1903,-1.1901,-1.1905,-1.1884,-1.1881,-1.1869,-1.1903,-1.1868,-1.1877,-1.187,-1.187,-1.1872,-1.191,-1.1912,-1.1913,-1.1914,0,-1.2045,-1.2031,-1.2029,-1.2023,-1.2022,-1.2016,-1.2008,-1.2011,-1.1976,-1.1978,-1.1979,-1.1977,-1.1973,-1.1973,-1.1966,-1.1956,-1.193,-1.1925,-1.1931,-1.1941,-1.1951,-1.1947,-1.1838,-1.1923,-1.1922,-1.1921,-1.1921,-1.192,-1.2108,-1.2118,-1.2102,-1.2101,-1.2092,-1.2085,-1.2091,-1.2073,-1.2074,-1.2068,-1.2049,-1.2054,-1.204,-1.2029,-1.2021,-1.2025,-1.2008,-1.2017,-1.2019,-1.2022,-1.2028,-1.195,-1.2023,-1.2023,-1.2023,-1.2023,-1.2022,0,-1.2189,-1.2177,-1.2177,-1.2167,-1.2167,-1.2142,-1.2132,-1.2134,-1.2138,-1.2128,-1.2126,-1.2128,-1.2128,-1.2107,-1.2104,-1.2112,-1.21,-1.2112,-1.2112,-1.211,-1.2042,-1.2038,-1.2122,-1.2122,-1.2122,-1.2122,-1.2122,-1.2122,-1.2231,-1.2246,-1.223,-1.224,-1.2228,-1.2232,-1.2229,-1.2223,-1.2214,-1.2218,-1.2217,-1.2204,-1.2189,-1.2186,-1.2185,-1.2179,-1.218,-1.2197,-1.2187,-1.2124,-1.2115,-1.2105,-1.2101,-1.2197,-1.2197,-1.2254,-1.2255,-1.2255]},{"header":{"parameterUnit":"m.s-1","parameterCategory":1,"la1":30.2991,"la2":30.254,"lo1":-89.0895,"lo2":-89.0444,"dy":0.0017,"dx":0.0017,"nx":28,"ny":28,"refTime":"2025-06-02T21:00:00:Z","depth":0,"parameterNumber":3,"parameterNumberName":"V-component_of_WINDS"},"data":[0,0,0,0,0,0,0,0,0,0,0,0,0,0,0,0,0,0,0,0,0,0,0,0,0,0,0,0,0,0,0,0,0,0,0,0,0,0,0,0,0,0,0,0,0,0,0,0,0,0,0,0,0,0,0,0,0,0,2.933,2.933,0,2.9292,2.9292,2.9291,2.9261,2.926,2.926,2.926,2.9219,2.9218,2.9217,0,0,0,0,0,0,0,0,0,0,0,0,0,2.9373,2.9372,2.933,2.9329,2.9329,2.9292,2.9292,2.9291,2.9261,2.926,2.926,2.926,2.9219,2.9218,2.9217,0,0,0,0,0,0,0,0,0,0,0,0,0,2.9347,2.9372,2.933,2.9309,2.9307,2.9293,2.9292,2.9291,2.9261,2.926,2.926,2.9259,2.9219,2.9218,2.9217,2.9219,0,0,2.9213,2.9213,0,0,0,0,0,0,0,0,2.9348,2.9345,2.9313,2.9311,2.9308,2.9281,2.9292,2.9267,2.9261,2.9278,2.926,2.9259,2.9239,2.9237,2.923,2.9217,2.9215,2.9213,2.9212,2.9212,2.9211,0,0,0,0,0,0,0,2.935,2.9347,2.9315,2.9312,2.931,2.9301,2.9297,2.9287,2.9262,2.9277,2.9274,2.9271,2.9238,2.9232,2.9229,2.9214,2.9213,2.9212,2.9211,2.9211,2.92,2.9201,0,0,0,0,0,0,2.9355,2.9348,2.9316,2.9314,2.9328,2.9301,2.9296,2.929,2.9262,2.9257,2.9271,2.9269,2.9234,2.9231,2.9228,2.9228,2.9212,2.9211,2.921,2.92,2.92,2.9201,0,0,0,0,0,0,2.9356,2.9353,2.9318,2.933,2.9325,2.9301,2.9294,2.929,2.9283,2.9258,2.9253,2.9269,2.9233,2.9229,2.9221,2.9226,2.921,2.9209,2.9199,2.92,2.9201,2.9229,0,0,0,0,0,0,2.9358,2.9353,2.9354,2.9331,2.9325,2.9313,2.9294,2.9289,2.9281,2.9279,2.9255,2.925,2.9233,2.9223,2.922,2.9224,2.9208,2.9199,2.92,2.92,2.9227,2.923,2.9233,0,0,0,0,0,2.9359,2.9363,2.9355,2.9351,2.9326,2.9313,2.931,2.929,2.9282,2.9282,2.9266,2.9251,2.9226,2.9223,2.9219,2.9223,2.9198,2.9199,2.92,2.9226,2.923,2.9233,0,0,0,0,0,0,2.9387,2.936,2.935,2.9346,2.9332,2.9308,2.9308,2.9295,2.9282,2.928,2.9256,2.9251,2.9245,2.9233,2.923,2.9223,2.921,2.9211,2.9231,2.9234,2.9237,2.924,2.9207,0,0,0,0,0,2.9393,2.9386,2.9362,2.9361,2.9355,2.9333,2.9326,2.9313,2.9297,2.9291,2.9274,2.9259,2.9247,2.924,2.9228,2.9226,2.922,2.9226,2.9229,2.9232,2.9232,2.9229,2.9232,2.9204,2.9204,2.9204,0,0,2.9404,2.9389,2.9385,2.9366,2.9354,2.9346,2.9328,2.9321,2.9315,2.9289,2.9281,2.9268,2.9249,2.9244,2.9241,2.9234,2.9238,2.9233,2.9235,2.9234,2.9231,2.9233,2.9236,2.9205,2.9205,2.9205,0,0,2.9422,2.9409,2.9407,2.9395,2.9377,2.9363,2.9363,2.934,2.9331,2.9323,2.9304,2.9296,2.9277,2.9264,2.9255,2.9269,2.9254,2.9266,2.928,2.9278,2.928,2.9282,2.9286,2.9288,2.9266,2.9266,2.9266,0,2.9438,2.9427,2.9407,2.9402,2.9393,2.9372,2.9369,2.9358,2.9337,2.9332,2.9324,2.93,2.9286,2.9278,2.9281,2.9275,2.9273,2.9268,2.9281,2.9283,2.9284,2.9288,2.929,2.9268,2.9267,2.9267,2.9267,0,2.9447,2.944,2.944,2.9422,2.9413,2.9409,2.9389,2.9383,2.937,2.9356,2.9348,2.933,2.9314,2.9311,2.9299,2.9301,2.9297,2.9286,2.9273,2.9289,2.9292,2.9293,2.927,2.9269,2.9269,2.9268,0,0,2.948,2.9451,2.9452,2.9443,2.9422,2.9415,2.941,2.9396,2.9391,2.9377,2.9372,2.9357,2.9346,2.9336,2.9322,2.932,2.9332,2.9309,2.9308,2.9313,2.9333,2.9341,2.9343,2.9322,2.9322,2.9323,2.9334,0,2.9493,2.9483,2.9466,2.9462,2.9454,2.9434,2.9429,2.9415,2.9402,2.9393,2.9379,2.9368,2.9356,2.935,2.9347,2.9331,2.9335,2.933,2.9316,2.9316,2.9321,2.9345,2.9353,2.9365,2.9335,2.9335,2.9336,0,2.9507,2.9496,2.9491,2.9471,2.9467,2.9463,2.9449,2.9441,2.9425,2.9415,2.9405,2.939,2.9382,2.9371,2.936,2.9357,2.935,2.9341,2.9341,2.9339,2.9326,2.9342,2.9368,2.937,2.9337,2.9337,2.9337,0,2.9531,2.9514,2.9509,2.9502,2.9479,2.9477,2.9467,2.945,2.9443,2.943,2.9425,2.9411,2.9403,2.9393,2.9374,2.9367,2.9365,2.9352,2.9356,2.9357,2.9356,2.9356,2.9381,2.9353,2.9353,2.9353,2.9353,0,2.9548,2.9545,2.952,2.9516,2.9513,2.9493,2.949,2.9478,2.9464,2.9457,2.9438,2.9433,2.9408,2.9399,2.9384,2.9378,2.9374,2.9366,2.9362,2.9367,2.9368,2.9362,2.9361,2.9353,2.9353,2.9353,2.9353,0,2.9573,2.9556,2.9549,2.9528,2.9522,2.9521,2.9502,2.9498,2.9484,2.9476,2.9473,2.9451,2.944,2.942,2.9403,2.9393,2.9389,2.9382,2.9395,2.9392,2.9397,2.9397,2.9419,2.942,2.9392,2.9392,2.9392,0,2.9585,2.9582,2.9561,2.9556,2.9547,2.9539,2.9531,2.9512,2.9505,2.9487,2.9485,2.9472,2.9461,2.9444,2.9426,2.9412,2.9405,2.9413,2.9403,2.9408,2.9404,2.9405,2.9404,2.9416,2.9416,2.9416,2.9417,0,2.9606,2.9598,2.9589,2.9577,2.9569,2.9558,2.9546,2.9543,2.9521,2.9514,2.9503,2.9494,2.9477,2.9464,2.9449,2.9437,2.9423,2.942,2.942,2.9426,2.9433,2.9429,2.9401,2.942,2.9419,2.9419,2.9419,2.9419,2.9625,2.9622,2.9607,2.9597,2.9586,2.9576,2.9571,2.9557,2.9548,2.9533,2.9522,2.9512,2.9495,2.9473,2.9463,2.9454,2.9447,2.9447,2.9447,2.9448,2.945,2.9435,2.9451,2.9451,2.945,2.945,2.945,0,2.9645,2.9635,2.9626,2.9611,2.9603,2.9592,2.9578,2.9572,2.9564,2.955,2.954,2.9527,2.9515,2.9497,2.9483,2.9479,2.9473,2.9476,2.9476,2.9474,2.9456,2.9458,2.9482,2.9482,2.9482,2.9482,2.9482,2.9482,2.9655,2.9649,2.964,2.9629,2.9618,2.9609,2.9602,2.9592,2.9581,2.9568,2.9558,2.9547,2.9531,2.9517,2.9505,2.95,2.9495,2.9501,2.9494,2.9478,2.9475,2.9472,2.9473,2.9501,2.9501,2.9512,2.9512,2.9512]}]]